Location: La Pernelle
(49.6188°N, 1.2999°W)
Time: 14:21:23
(UTC+00:00)

CARTOSAT-1 - Pass Details

Date: 12 June 2021
Orbit: 616 x 619 km, 97.8° (Epoch: 04 August)

Event Time Altitude Azimuth Distance (km) Brightness Sun altitude
Exits shadow 21:41:40 - 181° (S) 2,037 5.7 -10.5°
Reaches altitude 10° 21:41:49 10° 182° (S) 1,977 5.7 -10.5°
Maximum altitude 21:46:02 54° 260° (W) 753 4.1 -10.9°
Drops below altitude 10° 21:50:18 10° 338° (NNW) 1,995 7.7 -11.2°
Sets 21:52:32 0° 343° (NNW) 2,907 8.8 -11.4°
